When you browse on this site, cookies collect data to enhance your experience and personalize the content and advertising you see.
Visit our Privacy Policy to learn more. By continuing to use the site, you agree to this use of cookies and data.
  • In Spain
  • List of Countries
  • For 7 days
  • Water Temperature
  • Weather Map
  • Weather Widgets
  • user-avatar
    Login

    Hourly Weather Bedford

    Today, 22 September, Sunday

    Time Temperature Precipitation Wind Pressure Humidity
    00:00 +18°C° 0 mm 3 mps 752 mmHg 70%
    01:00 +18°C° 0.2 mm 3 mps 751 mmHg 73%
    02:00 +18°C° 0.2 mm 3 mps 750 mmHg 76%
    03:00 +18°C° 0.2 mm 3 mps 750 mmHg 80%
    04:00 +18°C° 0.3 mm 3 mps 749 mmHg 80%
    05:00 +18°C° 0.3 mm 3 mps 749 mmHg 81%
    06:00 +18°C° 0.3 mm 4 mps 749 mmHg 81%
    07:00 +19°C° 0.2 mm 4 mps 749 mmHg 80%
    08:00 +20°C° 0.2 mm 4 mps 749 mmHg 78%
    09:00 +21°C° 0.2 mm 4 mps 749 mmHg 76%
    10:00 +21°C° 0.1 mm 4 mps 749 mmHg 77%
    11:00 +21°C° 0.1 mm 4 mps 749 mmHg 77%
    12:00 +21°C° 0.1 mm 4 mps 749 mmHg 78%
    13:00 +20°C° 1 mm 4 mps 749 mmHg 82%
    14:00 +19°C° 1 mm 4 mps 749 mmHg 85%
    15:00 +18°C° 1 mm 4 mps 749 mmHg 89%
    16:00 +17°C° 0.1 mm 3 mps 749 mmHg 88%
    17:00 +17°C° 0.1 mm 3 mps 749 mmHg 87%
    18:00 +17°C° 0.1 mm 3 mps 750 mmHg 87%
    19:00 +16°C° 0 mm 3 mps 750 mmHg 87%
    20:00 +16°C° 0 mm 3 mps 750 mmHg 87%
    21:00 +14°C° 0 mm 3 mps 750 mmHg 88%
    22:00 +14°C° 0 mm 3 mps 751 mmHg 89%
    23:00 +13°C° 0 mm 3 mps 751 mmHg 91%

    Tomorrow, 23 September, Monday

    Time Temperature Precipitation Wind Pressure Humidity
    00:00 +13°C° 0 mm 3 mps 751 mmHg 92%
    01:00 +13°C° 0 mm 3 mps 751 mmHg 93%
    02:00 +13°C° 0 mm 4 mps 752 mmHg 94%
    03:00 +12°C° 0 mm 4 mps 752 mmHg 95%
    04:00 +12°C° 0 mm 4 mps 752 mmHg 95%
    05:00 +13°C° 0 mm 5 mps 753 mmHg 94%
    06:00 +13°C° 0 mm 5 mps 753 mmHg 93%
    07:00 +14°C° 0 mm 5 mps 753 mmHg 87%
    08:00 +15°C° 0 mm 5 mps 754 mmHg 81%
    09:00 +16°C° 0 mm 6 mps 754 mmHg 75%
    10:00 +16°C° 0 mm 6 mps 754 mmHg 70%
    11:00 +17°C° 0 mm 5 mps 754 mmHg 64%
    12:00 +19°C° 0 mm 5 mps 755 mmHg 58%
    13:00 +20°C° 0 mm 6 mps 755 mmHg 58%
    14:00 +20°C° 0 mm 6 mps 754 mmHg 58%
    15:00 +20°C° 0 mm 6 mps 754 mmHg 58%
    16:00 +19°C° 0.1 mm 6 mps 754 mmHg 64%
    17:00 +17°C° 0.1 mm 6 mps 753 mmHg 70%
    18:00 +16°C° 0.1 mm 6 mps 753 mmHg 76%
    19:00 +15°C° 0.7 mm 6 mps 753 mmHg 80%
    20:00 +15°C° 0.7 mm 7 mps 753 mmHg 84%
    21:00 +15°C° 0.7 mm 7 mps 753 mmHg 88%
    22:00 +15°C° 0.1 mm 7 mps 752 mmHg 89%
    23:00 +16°C° 0.1 mm 6 mps 752 mmHg 90%

    Day after tomorrow, 24 September, Tuesday

    Time Temperature Precipitation Wind Pressure Humidity
    00:00 +16°C° 0.1 mm 6 mps 751 mmHg 91%
    01:00 +16°C° 0.1 mm 5 mps 751 mmHg 91%
    02:00 +16°C° 0.1 mm 5 mps 750 mmHg 91%
    03:00 +16°C° 0.1 mm 5 mps 750 mmHg 91%
    04:00 +17°C° 0.5 mm 5 mps 749 mmHg 91%
    05:00 +17°C° 0.5 mm 5 mps 748 mmHg 91%
    06:00 +17°C° 0.5 mm 5 mps 748 mmHg 91%
    07:00 +17°C° 1.8 mm 6 mps 747 mmHg 90%
    08:00 +17°C° 1.8 mm 7 mps 747 mmHg 90%
    09:00 +17°C° 1.8 mm 8 mps 746 mmHg 90%
    10:00 +16°C° 2.6 mm 7 mps 746 mmHg 88%
    11:00 +16°C° 2.6 mm 6 mps 746 mmHg 86%
    12:00 +16°C° 2.6 mm 5 mps 746 mmHg 84%
    13:00 +17°C° 0.5 mm 5 mps 746 mmHg 81%
    14:00 +17°C° 0.5 mm 6 mps 745 mmHg 78%
    15:00 +17°C° 0.5 mm 6 mps 745 mmHg 74%
    16:00 +16°C° 0.1 mm 6 mps 746 mmHg 78%
    17:00 +16°C° 0.1 mm 6 mps 746 mmHg 82%
    18:00 +15°C° 0.1 mm 5 mps 746 mmHg 85%
    19:00 +15°C° 0.2 mm 6 mps 746 mmHg 86%
    20:00 +14°C° 0.2 mm 6 mps 746 mmHg 87%
    21:00 +14°C° 0.2 mm 6 mps 747 mmHg 88%
    22:00 +14°C° 0.2 mm 6 mps 746 mmHg 88%
    23:00 +14°C° 0.2 mm 6 mps 746 mmHg 89%

    25 September, Wednesday

    Time Temperature Precipitation Wind Pressure Humidity
    00:00 +14°C° 0.2 mm 6 mps 746 mmHg 89%
    01:00 +14°C° 0.6 mm 6 mps 746 mmHg 90%
    02:00 +14°C° 0.6 mm 6 mps 746 mmHg 91%
    03:00 +14°C° 0.6 mm 7 mps 745 mmHg 92%
    04:00 +14°C° 0.3 mm 6 mps 745 mmHg 91%
    05:00 +14°C° 0.3 mm 6 mps 745 mmHg 91%
    06:00 +14°C° 0.3 mm 6 mps 745 mmHg 90%
    07:00 +14°C° 0.1 mm 6 mps 746 mmHg 89%
    08:00 +15°C° 0.1 mm 5 mps 746 mmHg 89%
    09:00 +15°C° 0.1 mm 5 mps 746 mmHg 88%
    10:00 +16°C° 0.1 mm 5 mps 747 mmHg 85%
    11:00 +16°C° 0.1 mm 6 mps 747 mmHg 82%
    12:00 +17°C° 0.1 mm 6 mps 747 mmHg 79%
    13:00 +17°C° 0.2 mm 6 mps 748 mmHg 78%
    14:00 +19°C° 0.2 mm 6 mps 748 mmHg 76%
    15:00 +19°C° 0.2 mm 6 mps 748 mmHg 74%
    16:00 +17°C° 0 mm 5 mps 748 mmHg 79%
    17:00 +16°C° 0 mm 5 mps 748 mmHg 84%
    18:00 +15°C° 0 mm 4 mps 748 mmHg 88%
    19:00 +15°C° 0.1 mm 4 mps 748 mmHg 90%
    20:00 +15°C° 0.1 mm 4 mps 748 mmHg 91%
    21:00 +15°C° 0.1 mm 5 mps 748 mmHg 92%
    22:00 +16°C° 0.7 mm 5 mps 748 mmHg 93%
    23:00 +16°C° 0.7 mm 6 mps 748 mmHg 93%

    26 September, Thursday

    Time Temperature Precipitation Wind Pressure Humidity
    00:00 +16°C° 0.7 mm 6 mps 747 mmHg 94%
    01:00 +16°C° 0.1 mm 6 mps 747 mmHg 91%
    02:00 +15°C° 0.1 mm 6 mps 747 mmHg 89%
    03:00 +15°C° 0.1 mm 6 mps 747 mmHg 87%
    04:00 +15°C° 0 mm 7 mps 747 mmHg 88%
    05:00 +15°C° 0 mm 7 mps 747 mmHg 89%
    06:00 +15°C° 0 mm 7 mps 747 mmHg 90%
    07:00 +15°C° 0.7 mm 6 mps 747 mmHg 91%
    08:00 +15°C° 0.7 mm 6 mps 748 mmHg 91%
    09:00 +16°C° 0.7 mm 5 mps 748 mmHg 92%
    10:00 +16°C° 0.3 mm 6 mps 748 mmHg 85%
    11:00 +17°C° 0.3 mm 6 mps 748 mmHg 78%
    12:00 +18°C° 0.3 mm 7 mps 748 mmHg 71%
    13:00 +19°C° 0.1 mm 6 mps 748 mmHg 70%
    14:00 +17°C° 0.1 mm 6 mps 747 mmHg 68%
    15:00 +17°C° 0.1 mm 6 mps 747 mmHg 67%
    16:00 +16°C° 0.3 mm 6 mps 747 mmHg 73%
    17:00 +15°C° 0.3 mm 5 mps 748 mmHg 78%
    18:00 +14°C° 0.3 mm 5 mps 748 mmHg 84%
    19:00 +13°C° 0.1 mm 5 mps 748 mmHg 85%
    20:00 +13°C° 0.1 mm 5 mps 748 mmHg 87%
    21:00 +13°C° 0.1 mm 5 mps 749 mmHg 89%
    22:00 +12°C° 0 mm 5 mps 749 mmHg 89%
    23:00 +12°C° 0 mm 5 mps 749 mmHg 89%

    27 September, Friday

    Time Temperature Precipitation Wind Pressure Humidity
    00:00 +12°C° 0 mm 5 mps 749 mmHg 89%
    01:00 +12°C° 0 mm 5 mps 748 mmHg 89%
    02:00 +10°C° 0 mm 5 mps 748 mmHg 90%
    03:00 +10°C° 0 mm 5 mps 748 mmHg 90%
    04:00 +12°C° 0.1 mm 5 mps 748 mmHg 90%
    05:00 +12°C° 0.1 mm 5 mps 748 mmHg 90%
    06:00 +12°C° 0.1 mm 5 mps 748 mmHg 90%
    07:00 +13°C° 0.1 mm 5 mps 749 mmHg 86%
    08:00 +14°C° 0.1 mm 6 mps 749 mmHg 83%
    09:00 +14°C° 0.1 mm 6 mps 749 mmHg 79%
    10:00 +15°C° 0.1 mm 6 mps 749 mmHg 75%
    11:00 +16°C° 0.1 mm 7 mps 749 mmHg 71%
    12:00 +16°C° 0.1 mm 7 mps 749 mmHg 67%
    13:00 +16°C° 0.1 mm 7 mps 749 mmHg 67%
    14:00 +16°C° 0.1 mm 7 mps 749 mmHg 68%
    15:00 +16°C° 0.1 mm 7 mps 749 mmHg 68%
    16:00 +15°C° 0 mm 6 mps 749 mmHg 72%
    17:00 +14°C° 0 mm 6 mps 749 mmHg 76%
    18:00 +14°C° 0 mm 5 mps 749 mmHg 79%
    19:00 +13°C° 0 mm 6 mps 749 mmHg 81%
    20:00 +13°C° 0 mm 6 mps 749 mmHg 82%
    21:00 +13°C° 0 mm 6 mps 749 mmHg 83%
    22:00 +12°C° 0.2 mm 7 mps 749 mmHg 84%
    23:00 +12°C° 0.2 mm 7 mps 749 mmHg 86%
    Show more